Change the Weather History Date:

Wednesday, April 30, 2014

  Actual Average (KCLT) Record (KCLT)
Temperature  
Mean Temperature 66 °F 63 °F  
Max Temperature 77 °F 75 °F 91 °F (1962)
Min Temperature 54 °F 51 °F 37 °F (2008)
Degree Days  
Heating Degree Days 0 4  
Month to date heating degree days 199  
Since 1 July heating degree days 3332  
Cooling Degree Days 0 2  
Month to date cooling degree days 32  
Year to date cooling degree days 37  
Growing Degree Days 16 (Base 50)    
Moisture  
Dew Point 60 °F    
Average Humidity 84    
Maximum Humidity 100    
Minimum Humidity 63    
Precipitation  
Precipitation 0.61 in 0.09 in 2.34 in (1924)
Month to date precipitation 3.04  
Year to date precipitation 13.78  
Snow  
Snow 0.00 in 0.00 in 0.00 in ()
Month to date snowfall T  
Since 1 July snowfall 4.3  
Snow Depth -    
Sea Level Pressure  
Sea Level Pressure 29.94 in    
Wind  
Wind Speed 5 mph (SSW)    
Max Wind Speed 14 mph    
Max Gust Speed 24 mph    
Visibility 7 miles    
Events Fog , Rain    
T = Trace of Precipitation, MM = Missing Value Source: NWS Daily Summary

Daily Weather History Graph

Daily Weather History Graph

Search for Another Location

Airport or City:

Trip Planner

Search our weather history database for the weather conditions in past years. The results will help you decide how hot, cold, wet, or windy it might be!

Date:

Astronomy

Apr. 30, 2014 Rise Set
Actual Time 6:31 AM EDT 8:07 PM EDT
Civil Twilight 6:04 AM EDT 8:35 PM EDT
Nautical Twilight 5:31 AM EDT 9:08 PM EDT
Astronomical Twilight 4:56 AM EDT 9:42 PM EDT
Moon 7:32 AM EDT 9:43 PM EDT
Length of Visible Light 14h 31m
Length of Day
13h 36m
New Moon, 2% of the Moon is Illuminated
Apr 30
New Moon
May 6
First Quarter
May 14
Full
May 21
Last Quarter
May 28
New

Hourly Weather History & Observations

Time (EDT) Temp. Dew Point Humidity Pressure Visibility Wind Dir Wind Speed Gust Speed Precip Events Conditions
12:15 AM 55.6 °F 55.4 °F 99% 30.02 in 0.8 mi NE 5.8 mph - N/A   Overcast
12:35 AM 55.8 °F 55.6 °F 99% 30.02 in 0.8 mi NNE 5.8 mph - N/A   Overcast
12:55 AM 55.6 °F 55.4 °F 99% 30.01 in 0.8 mi NNE 5.8 mph - N/A   Overcast
1:15 AM 55.6 °F 55.4 °F 99% 30.02 in 1.0 mi Calm Calm - N/A   Overcast
1:35 AM 55.4 °F 55.4 °F 100% 30.01 in 1.2 mi Calm Calm - N/A   Overcast
1:55 AM 55.4 °F 55.4 °F 100% 30.01 in 1.0 mi Calm Calm - N/A   Overcast
2:15 AM 54.9 °F 54.9 °F 100% 30.01 in 1.0 mi Calm Calm - N/A   Overcast
2:35 AM 54.7 °F 54.7 °F 100% 30.00 in 0.8 mi Calm Calm - N/A   Overcast
2:55 AM 54.5 °F 54.5 °F 100% 29.98 in 4.0 mi North 3.5 mph - 0.16 in Rain Light Rain
3:15 AM 54.5 °F 54.5 °F 100% 29.98 in 3.0 mi NNW 3.5 mph - 0.08 in Rain Heavy Rain
3:35 AM 54.1 °F 54.1 °F 100% 29.98 in 10.0 mi Calm Calm - 0.12 in Rain Rain
3:55 AM 54.1 °F 54.1 °F 100% 29.98 in 3.0 mi Calm Calm - 0.14 in Rain Heavy Rain
4:15 AM 54.1 °F 54.1 °F 100% 29.98 in 4.0 mi East 3.5 mph - 0.04 in Rain Rain
4:35 AM 54.1 °F 54.1 °F 100% 29.97 in 7.0 mi Calm Calm - 0.08 in Rain Rain
4:55 AM 54.5 °F 54.1 °F 99% 29.97 in 10.0 mi Calm Calm - 0.12 in   Overcast
5:15 AM 54.5 °F 54.1 °F 99% 29.96 in 10.0 mi Calm Calm - 0.03 in Rain Light Rain
5:35 AM 54.5 °F 54.5 °F 100% 29.96 in 10.0 mi Calm Calm - 0.06 in   Overcast
5:55 AM 54.5 °F 54.5 °F 100% 29.95 in 10.0 mi Calm Calm - 0.09 in Rain Light Rain
6:15 AM 55.0 °F 54.9 °F 99% 29.95 in 7.0 mi Calm Calm - 0.02 in   Overcast
6:35 AM 55.4 °F 55.4 °F 100% 29.97 in 7.0 mi Calm Calm - 0.04 in Rain Light Rain
6:55 AM 55.4 °F 55.0 °F 99% 29.98 in 3.0 mi Calm Calm - 0.05 in   Overcast
7:15 AM 55.6 °F 55.6 °F 100% 29.97 in 2.0 mi Calm Calm - 0.02 in   Overcast
7:35 AM 55.9 °F 55.9 °F 100% 29.97 in 1.5 mi Calm Calm - 0.03 in   Overcast
7:55 AM 55.9 °F 55.9 °F 100% 29.97 in 0.5 mi Calm Calm - 0.04 in Fog Fog
8:15 AM 56.5 °F 56.5 °F 100% 29.96 in 0.5 mi Calm Calm - N/A Fog Fog
8:35 AM 57.7 °F 57.7 °F 100% 29.95 in 0.5 mi Calm Calm - N/A Fog Fog
8:55 AM 58.5 °F 58.5 °F 100% 29.95 in 1.0 mi Calm Calm - N/A   Overcast
9:15 AM 59.4 °F 59.4 °F 100% 29.97 in 2.5 mi WNW 3.5 mph - N/A   Overcast
9:35 AM 67.3 °F 67.3 °F 100% 29.96 in 5.0 mi South 6.9 mph - 0.01 in   Overcast
9:55 AM 69.4 °F 68.2 °F 96% 29.95 in 7.0 mi South 11.5 mph - 0.01 in   Mostly Cloudy
10:15 AM 70.0 °F 67.3 °F 91% 29.95 in 10.0 mi SSW 6.9 mph 16.1 mph N/A   Mostly Cloudy
10:35 AM 69.8 °F 67.3 °F 92% 29.95 in 10.0 mi South 5.8 mph - N/A   Overcast
10:50 AM 70.5 °F 66.4 °F 87% 29.95 in 10.0 mi South 9.2 mph 17.3 mph N/A   Overcast
11:15 AM 70.3 °F 66.6 °F 88% 29.95 in 10.0 mi South 9.2 mph - N/A   Overcast
11:35 AM 70.9 °F 66.6 °F 86% 29.95 in 10.0 mi South 10.4 mph - N/A   Overcast
11:55 AM 72.1 °F 66.0 °F 81% 29.94 in 10.0 mi South 8.1 mph 16.1 mph N/A   Mostly Cloudy
12:15 PM 72.1 °F 65.8 °F 80% 29.92 in 10.0 mi South 12.7 mph 17.3 mph N/A Rain Light Rain
12:35 PM 72.3 °F 65.5 °F 79% 29.93 in 10.0 mi WSW 9.2 mph 17.3 mph N/A   Scattered Clouds
12:55 PM 71.8 °F 65.7 °F 81% 29.92 in 10.0 mi WSW 4.6 mph - N/A   Mostly Cloudy
1:15 PM 72.3 °F 65.3 °F 78% 29.90 in 10.0 mi SW 5.8 mph - N/A   Scattered Clouds
1:35 PM 73.0 °F 65.5 °F 77% 29.90 in 10.0 mi South 6.9 mph - N/A   Clear
1:55 PM 73.4 °F 66.0 °F 78% 29.92 in 10.0 mi SW 5.8 mph - N/A   Clear
2:15 PM 73.2 °F 65.5 °F 77% 29.92 in 10.0 mi WSW 5.8 mph - N/A   Scattered Clouds
2:35 PM 73.8 °F 66.0 °F 77% 29.91 in 10.0 mi SSW 10.4 mph - N/A   Mostly Cloudy
2:55 PM 74.8 °F 66.7 °F 76% 29.90 in 10.0 mi SSW 5.8 mph - N/A   Scattered Clouds
3:15 PM 75.6 °F 66.6 °F 74% 29.89 in 10.0 mi SW 5.8 mph - N/A   Mostly Cloudy
3:35 PM 77.5 °F 63.9 °F 63% 29.89 in 10.0 mi SSW 13.8 mph 24.2 mph N/A   Mostly Cloudy
3:55 PM 75.7 °F 64.6 °F 68% 29.88 in 10.0 mi SSW 12.7 mph 17.3 mph N/A   Mostly Cloudy
4:15 PM 76.1 °F 63.7 °F 65% 29.88 in 10.0 mi SW 8.1 mph 20.7 mph N/A   Scattered Clouds
4:35 PM 75.4 °F 62.8 °F 65% 29.89 in 10.0 mi SW 10.4 mph 20.7 mph N/A   Scattered Clouds
4:55 PM 75.7 °F 62.6 °F 64% 29.88 in 10.0 mi SW 10.4 mph 17.3 mph N/A   Scattered Clouds
5:15 PM 75.4 °F 62.6 °F 64% 29.88 in 10.0 mi SW 10.4 mph - N/A   Clear
5:55 PM 74.5 °F 61.7 °F 64% 29.89 in 10.0 mi SSW 8.1 mph 18.4 mph N/A   Mostly Cloudy
6:15 PM 74.5 °F 61.3 °F 63% 29.89 in 10.0 mi SSW 11.5 mph 19.6 mph N/A   Scattered Clouds
6:35 PM 73.8 °F 60.8 °F 64% 29.89 in 10.0 mi SSW 8.1 mph 17.3 mph N/A   Mostly Cloudy
6:55 PM 73.4 °F 60.8 °F 65% 29.88 in 10.0 mi SSW 10.4 mph 17.3 mph N/A   Mostly Cloudy
7:15 PM 72.9 °F 60.8 °F 66% 29.89 in 10.0 mi SSW 10.4 mph 19.6 mph N/A   Scattered Clouds
7:35 PM 73.4 °F 60.3 °F 63% 29.89 in 10.0 mi SSW 9.2 mph 17.3 mph N/A   Mostly Cloudy
7:55 PM 72.5 °F 60.6 °F 66% 29.90 in 10.0 mi SSW 8.1 mph - N/A   Mostly Cloudy
8:15 PM 72.5 °F 60.3 °F 65% 29.90 in 10.0 mi SSW 10.4 mph 19.6 mph N/A   Mostly Cloudy
8:35 PM 71.8 °F 60.8 °F 68% 29.91 in 10.0 mi SSW 9.2 mph - N/A   Overcast
8:55 PM 71.6 °F 60.1 °F 67% 29.91 in 10.0 mi SSW 9.2 mph 18.4 mph N/A   Overcast
9:15 PM 71.6 °F 60.1 °F 67% 29.91 in 10.0 mi SSW 5.8 mph 16.1 mph N/A   Overcast
9:35 PM 70.7 °F 61.0 °F 71% 29.91 in 10.0 mi South 6.9 mph - N/A   Overcast
9:55 PM 70.3 °F 61.2 °F 73% 29.91 in 10.0 mi South 4.6 mph - N/A   Overcast
10:15 PM 70.2 °F 61.0 °F 73% 29.91 in 10.0 mi South 9.2 mph - N/A   Overcast
10:35 PM 70.5 °F 60.4 °F 70% 29.92 in 10.0 mi South 9.2 mph - N/A   Overcast
11:15 PM 70.0 °F 60.8 °F 73% 29.92 in 10.0 mi South 8.1 mph - N/A   Overcast
11:35 PM 70.0 °F 60.4 °F 72% 29.91 in 10.0 mi SSW 6.9 mph 16.1 mph N/A   Overcast
11:55 PM 70.0 °F 60.1 °F 71% 29.91 in 10.0 mi SSW 11.5 mph 16.1 mph N/A   Overcast